CW5622 Weather Reports


Display with metric or nautical units.
time (UTC)temp
F
wind
direction
speed
MPH
gust
MPH
rain 1hr
in
rain 24hr
in
rain mn
in
humidity
%
barometer
mb
20180424201844 67 175 5.0 0.0 0.00 0.00 0.00 26 1022.8
20180424200844 68 210 4.0 0.0 0.00 0.00 0.00 24 1023.0
20180424195843 68 196 17.0 0.0 0.00 0.00 0.00 27 1023.1
20180424194844 67 207 5.0 0.0 0.00 0.00 0.00 28 1023.1
20180424193843 68 121 10.0 0.0 0.00 0.00 0.00 24 1023.2
20180424192844 68 233 3.0 0.0 0.00 0.00 0.00 26 1023.5
20180424191846 69 207 10.0 0.0 0.00 0.00 0.00 26 1023.5
20180424190845 69 126 11.0 0.0 0.00 0.00 0.00 24 1023.7
20180424185844 68 191 6.0 0.0 0.00 0.00 0.00 24 1024.0
20180424184845 66 169 3.0 0.0 0.00 0.00 0.00 27 1024.0
20180424183844 67 205 15.0 0.0 0.00 0.00 0.00 24 1024.2
20180424182844 68 223 9.0 0.0 0.00 0.00 0.00 23 1024.3
20180424181846 68 194 3.0 0.0 0.00 0.00 0.00 24 1024.3
20180424180845 68 190 0.0 0.0 0.00 0.00 0.00 24 1024.3
20180424175844 69 170 0.0 0.0 0.00 0.00 0.00 21 1024.5
20180424174844 69 177 8.0 0.0 0.00 0.00 0.00 25 1024.5
20180424173844 69 211 6.0 0.0 0.00 0.00 0.00 25 1024.6
20180424172844 70 207 0.0 0.0 0.00 0.00 0.00 26 1024.7
20180424171844 68 142 6.0 0.0 0.00 0.00 0.00 28 1024.7
20180424170845 69 144 7.0 0.0 0.00 0.00 0.00 26 1025.0
20180424165845 68 194 0.0 0.0 0.00 0.00 0.00 25 1025.3
20180424164845 68 198 2.0 0.0 0.00 0.00 0.00 28 1025.3
20180424163847 67 201 6.0 0.0 0.00 0.00 0.00 29 1025.7
20180424162845 67 195 1.0 0.0 0.00 0.00 0.00 30 1025.8
20180424161844 68 141 7.0 0.0 0.00 0.00 0.00 26 1025.8
20180424160844 66 153 4.0 0.0 0.00 0.00 0.00 28 1026.2
20180424155844 67 195 4.0 0.0 0.00 0.00 0.00 28 1026.4
20180424154844 66 213 6.0 0.0 0.00 0.00 0.00 27 1026.4
20180424153844 66 142 4.0 0.0 0.00 0.00 0.00 28 1026.7
20180424152844 66 197 4.0 0.0 0.00 0.00 0.00 28 1026.8
20180424151845 65 192 7.0 0.0 0.00 0.00 0.00 28 1026.8
20180424150846 64 148 6.0 0.0 0.00 0.00 0.00 33 1027.1
20180424145844 63 185 3.0 0.0 0.00 0.00 0.00 37 1027.3
20180424144846 63 144 3.0 0.0 0.00 0.00 0.00 38 1027.3
20180424143844 61 182 1.0 0.0 0.00 0.00 0.00 40 1027.4
20180424142844 60 155 2.0 0.0 0.00 0.00 0.00 40 1027.7
20180424141845 60 160 3.0 0.0 0.00 0.00 0.00 44 1027.7
20180424140845 60 202 0.0 0.0 0.00 0.00 0.00 45 1027.8
20180424135844 58 194 6.0 0.0 0.00 0.00 0.00 48 1028.1
20180424134845 57 155 3.0 0.0 0.00 0.00 0.00 46 1028.1
20180424133844 56 143 6.0 0.0 0.00 0.00 0.00 54 1028.0
20180424132845 55 148 0.0 0.0 0.00 0.00 0.00 58 1028.1
20180424131844 54 195 0.0 0.0 0.00 0.00 0.00 57 1028.1
20180424130844 53 179 2.0 0.0 0.00 0.00 0.00 60 1028.1
20180424125845 51 154 0.0 0.0 0.00 0.00 0.00 67 1028.3
20180424124845 50 204 0.0 0.0 0.00 0.00 0.00 69 1028.3
20180424123844 49 142 1.0 0.0 0.00 0.00 0.00 71 1028.4
20180424122845 48 145 4.0 0.0 0.00 0.00 0.00 75 1028.6
20180424121846 46 128 4.0 0.0 0.00 0.00 0.00 76 1028.6
20180424120844 44 180 2.0 0.0 0.00 0.00 0.00 79 1028.5
20180424115845 43 176 0.0 0.0 0.00 0.00 0.00 83 1028.6
20180424114845 42 201 0.0 0.0 0.00 0.00 0.00 85 1028.6
20180424113844 41 202 3.0 0.0 0.00 0.00 0.00 89 1028.5
20180424112844 38 202 0.0 0.0 0.00 0.00 0.00 92 1028.5
20180424111847 36 202 0.0 0.0 0.00 0.00 0.00 93 1028.5
20180424110845 35 202 0.0 0.0 0.00 0.00 0.00 93 1028.5
20180424105844 33 202 0.0 0.0 0.00 0.00 0.00 94 1028.4
20180424104846 32 202 0.0 0.0 0.00 0.00 0.00 94 1028.4
20180424103846 32 202 0.0 0.0 0.00 0.00 0.00 95 1028.5
20180424102844 31 202 0.0 0.0 0.00 0.00 0.00 94 1028.2
20180424101844 31 197 0.0 0.0 0.00 0.00 0.00 93 1028.2
20180424100845 31 196 0.0 0.0 0.00 0.00 0.00 92 1028.0
20180424095846 31 196 0.0 0.0 0.00 0.00 0.00 92 1027.9
20180424094844 32 197 0.0 0.0 0.00 0.00 0.00 91 1027.9
20180424093846 32 197 0.0 0.0 0.00 0.00 0.00 90 1028.0
20180424092845 32 197 0.0 0.0 0.00 0.00 0.00 89 1027.9
20180424091846 32 197 0.0 0.0 0.00 0.00 0.00 89 1027.9
20180424090846 33 196 0.0 0.0 0.00 0.00 0.00 88 1027.9
20180424085845 33 196 0.0 0.0 0.00 0.00 0.00 86 1028.0
20180424084845 34 196 0.0 0.0 0.00 0.00 0.00 85 1028.0
20180424083844 34 196 0.0 0.0 0.00 0.00 0.00 83 1027.9
20180424082846 35 196 0.0 0.0 0.00 0.00 0.00 81 1027.9
20180424081845 36 196 0.0 0.0 0.00 0.00 0.00 80 1027.9
20180424080845 37 196 0.0 0.0 0.00 0.00 0.00 77 1027.9
20180424075845 38 197 0.0 0.0 0.00 0.00 0.00 76 1027.9
20180424074845 38 196 0.0 0.0 0.00 0.00 0.00 76 1027.9
20180424073846 38 197 0.0 0.0 0.00 0.00 0.00 75 1028.0
20180424072845 38 196 0.0 0.0 0.00 0.00 0.00 73 1028.0
20180424071845 39 197 0.0 0.0 0.00 0.00 0.00 71 1028.0
20180424070846 39 196 0.0 0.0 0.00 0.00 0.00 70 1027.8
20180424065845 39 196 0.0 0.0 0.00 0.00 0.00 69 1027.8
20180424064845 40 196 0.0 0.0 0.00 0.00 0.00 67 1027.8
20180424063845 40 196 0.0 0.0 0.00 0.00 0.00 66 1027.9
20180424062845 41 196 0.0 0.0 0.00 0.00 0.00 64 1028.0
20180424061847 42 196 0.0 0.0 0.00 0.00 0.00 64 1028.0
20180424060845 42 196 0.0 0.0 0.00 0.00 0.00 63 1028.2
20180424055845 42 198 1.0 0.0 0.00 0.00 0.00 62 1028.3
20180424054847 42 198 0.0 0.0 0.00 0.00 0.00 61 1028.3
20180424053845 42 198 2.0 0.0 0.00 0.00 0.00 61 1028.4
20180424052846 42 198 0.0 0.0 0.00 0.00 0.00 60 1028.5
20180424051846 43 198 0.0 0.0 0.00 0.00 0.00 58 1028.5
20180424050845 43 198 0.0 0.0 0.00 0.00 0.00 56 1028.5
20180424045845 44 197 0.0 0.0 0.00 0.00 0.00 53 1028.4
20180424044846 44 197 0.0 0.0 0.00 0.00 0.00 52 1028.4
20180424043845 44 200 0.0 0.0 0.00 0.00 0.00 51 1028.7
20180424042845 44 202 0.0 0.0 0.00 0.00 0.00 49 1028.8
20180424041845 45 202 0.0 0.0 0.00 0.00 0.00 47 1028.8
20180424040846 45 204 1.0 0.0 0.00 0.00 0.00 46 1028.8
20180424035845 46 203 1.0 0.0 0.00 0.00 0.00 45 1028.7
20180424034847 46 180 1.0 0.0 0.00 0.00 0.00 42 1028.7
20180424033846 47 180 0.0 0.0 0.00 0.00 0.00 42 1028.6
20180424032846 48 178 0.0 0.0 0.00 0.00 0.00 39 1028.7
20180424031847 48 186 0.0 0.0 0.00 0.00 0.00 38 1028.7
20180424030845 48 148 0.0 0.0 0.00 0.00 0.00 37 1028.6
20180424025845 49 152 0.0 0.0 0.00 0.00 0.00 38 1028.4
20180424024845 49 151 0.0 0.0 0.00 0.00 0.00 38 1028.4
20180424023845 50 156 4.0 0.0 0.00 0.00 0.00 38 1028.6
20180424022846 50 158 1.0 0.0 0.00 0.00 0.00 37 1028.7
20180424021846 51 158 0.0 0.0 0.00 0.00 0.00 36 1028.7
20180424020845 51 205 4.0 0.0 0.00 0.00 0.00 35 1028.8
20180424015845 52 178 0.0 0.0 0.00 0.00 0.00 34 1028.8
20180424014846 52 144 0.0 0.0 0.00 0.00 0.00 32 1028.8
20180424013847 53 209 2.0 0.0 0.00 0.00 0.00 32 1028.7
20180424012845 53 180 2.0 0.0 0.00 0.00 0.00 31 1028.4
20180424011848 53 182 1.0 0.0 0.00 0.00 0.00 31 1028.4
20180424010846 54 182 2.0 0.0 0.00 0.00 0.00 30 1028.4
20180424005845 54 149 4.0 0.0 0.00 0.00 0.00 29 1028.3
20180424004845 55 192 0.0 0.0 0.00 0.00 0.00 30 1028.3
20180424003846 55 188 2.0 0.0 0.00 0.00 0.00 28 1028.2
20180424002845 56 198 4.0 0.0 0.00 0.00 0.00 28 1027.9
20180424001845 56 216 4.0 0.0 0.00 0.00 0.00 28 1027.9
20180424000846 57 195 5.0 0.0 0.00 0.00 0.00 27 1027.6
20180423235846 58 202 6.0 0.0 0.00 0.00 0.00 28 1027.4
20180423234846 58 155 2.0 0.0 0.00 0.00 0.00 27 1027.4
20180423233845 59 168 3.0 0.0 0.00 0.00 0.00 26 1027.3
20180423232845 60 203 4.0 0.0 0.00 0.00 0.00 27 1027.3
20180423231847 60 205 9.0 0.0 0.00 0.00 0.00 27 1027.3
20180423230845 61 149 4.0 0.0 0.00 0.00 0.00 25 1027.0
20180423225845 62 210 11.0 0.0 0.00 0.00 0.00 25 1026.9
20180423224846 63 200 6.0 0.0 0.00 0.00 0.00 25 1026.9
20180423223847 64 174 5.0 0.0 0.00 0.00 0.00 22 1026.9
20180423222845 64 204 6.0 0.0 0.00 0.00 0.00 13 1026.9
20180423221847 65 153 3.0 0.0 0.00 0.00 0.00 12 1026.9
20180423220846 65 202 3.0 0.0 0.00 0.00 0.00 14 1027.0
20180423215846 66 146 1.0 0.0 0.00 0.00 0.00 16 1027.1
20180423214846 66 155 2.0 0.0 0.00 0.00 0.00 16 1027.1
20180423213846 66 153 4.0 0.0 0.00 0.00 0.00 14 1027.2
20180423212845 66 133 4.0 0.0 0.00 0.00 0.00 14 1027.3
20180423211846 66 140 2.0 0.0 0.00 0.00 0.00 15 1027.3
20180423210846 67 145 2.0 0.0 0.00 0.00 0.00 15 1027.3
20180423205849 67 142 0.0 0.0 0.00 0.00 0.00 17 1027.4
20180423204846 67 158 3.0 0.0 0.00 0.00 0.00 15 1027.4
20180423203846 67 130 2.0 0.0 0.00 0.00 0.00 15 1027.4
20180423202848 68 150 0.0 0.0 0.00 0.00 0.00 17 1027.5